Dewpoint
72 71 71 71 71 71 72 73 74 75 77 77 77 76 76 75 77 77 76 76 75 76 75 77 76 76 74 74 75 75 73 72 69 70 72 73 75 74 73 73 74 73 72
72 72 71 72 71 70 69 74 74 76 78 79 77 77 75 75 76 76 75 72 75 75 76 76 76 74 77 77 75 75 74 75 73 71 72 72 72 73 75 78 75 71 72
72 72 72 72 72 71 70 72 74 73 75 75 77 75 76 75 74 75 75 74 74 74 75 76 76 77 77 76 77 76 75 75 75 73 72 74 72 71 70 73 75 74 74
70 71 72 72 72 72 73 71 72 75 75 75 75 76 76 75 74 73 75 75 75 74 75 75 76 75 76 77 77 77 77 76 75 74 72 71 71 73 75 73 71 72 73
69 70 72 73 73 73 73 74 73 73 74 75 76 76 76 75 73 74 73 74 75 75 75 75 74 75 72 74 75 77 77 76 74 73 72 72 70 72 71 73 71 70 72
69 70 72 73 74 73 74 74 74 73 74 75 75 75 76 74 68 66 72 72 74 74 74 74 75 73 72 68 67 68 71 74 73 73 72 70 72 73 73 71 72 71 72
71 71 72 73 74 74 74 74 74 74 74 75 75 75 75 76 66 64 67 72 72 73 75 74 73 70 71 74 69 66 67 66 68 72 72 72 72 73 74 74 74 75 73
72 73 72 73 73 75 74 74 74 74 75 75 75 75 76 75 67 63 64 71 73 73 73 73 73 73 73 75 75 75 74 73 72 70 71 73 74 75 76 75 75 75 75
71 73 73 72 73 74 74 74 74 74 75 75 75 76 76 76 65 63 64 69 70 72 72 73 74 75 70 66 71 71 71 71 68 65 67 68 68 68 70 72 69 71 72
71 72 74 73 73 74 75 75 75 75 74 74 74 76 73 76 66 62 63 71 71 70 72 74 67 70 66 64 72 73 73 73 74 74 75 73 66 69 64 70 71 72 74
72 72 74 75 74 75 76 76 76 75 75 75 75 76 77 76 75 61 59 72 71 71 70 70 72 64 61 60 62 73 72 73 73 75 75 75 75 75 78 75 75 76 75
74 73 74 75 74 73 76 76 76 76 76 75 75 75 75 77 68 63 58 60 68 72 70 69 70 59 57 58 60 63 63 64 73 73 72 72 72 75 76 78 78 79 76
74 75 74 76 75 74 75 76 76 76 75 75 74 74 73 75 76 62 58 58 60 70 72 68 62 60 55 56 56 59 60 69 71 71 72 72 74 76 77 78 76 75 72
75 76 75 75 75 75 74 75 75 75 75 73 73 73 73 72 72 74 69 64 60 64 66 70 68 65 60 66 70 62 68 72 73 73 73 74 76 76 77 75 74 71 70
73 75 75 74 75 75 74 75 75 75 73 73 72 72 71 71 70 65 69 72 70 68 70 72 72 72 70 71 73 75 73 73 73 74 74 74 75 76 77 73 73 70 67
65 69 73 72 73 73 73 73 56 61 56 57 60 66 68 58 51 50 49 58 59 57 70 72 73 72 72 72 72 73 74 74 76 75 75 75 75 76 76 73 70 70 68
60 59 62 65 71 73 73 72 71 65 53 50 53 57 62 57 50 49 50 51 54 58 73 73 73 73 73 74 73 76 75 75 75 75 77 76 75 74 72 72 70 69 68
60 56 58 62 65 69 72 72 71 70 70 71 56 57 51 53 51 51 50 57 70 69 74 74 74 75 74 75 75 75 73 74 75 75 75 75 75 74 72 71 70 70 69
61 61 60 61 64 63 70 71 70 72 71 70 71 61 51 48 47 47 50 73 73 73 73 73 72 72 73 76 75 75 74 74 75 76 76 75 74 73 72 71 70 64 64
59 61 60 63 63 64 67 70 71 73 70 73 72 70 67 63 67 69 68 71 72 71 72 72 73 73 73 74 75 75 75 76 77 77 76 75 74 73 72 71 70 69 68
58 61 62 64 63 65 65 64 67 68 70 65 68 68 62 70 70 70 71 71 71 71 73 72 73 73 74 77 77 74 74 75 76 75 74 73 72 71 71 70 69 69 68
54 61 62 62 62 62 61 64 63 66 65 64 66 66 53 68 66 70 67 69 72 73 72 75 73 73 73 74 75 75 75 74 74 74 73 72 71 71 70 70 70 70 67
50 52 55 60 60 60 63 63 62 59 59 61 60 62 64 64 65 64 62 68 68 63 62 62 60 60 60 66 64 70 72 71 73 73 72 71 71 71 70 69 68 66 64
45 45 46 49 48 51 52 54 53 52 52 52 52 55 56 55 55 56 55 57 54 54 50 50 48 46 49 46 45 45 45 43 51 63 72 72 71 69 70 69 66 65 64
42 43 43 43 42 43 43 44 46 46 46 46 45 46 47 50 48 47 48 47 47 45 43 42 41 40 41 41 40 39 35 33 41 42 59 67 69 68 67 65 66 64 65
39 39 40 41 40 41 41 40 40 41 41 41 41 41 42 43 43 43 41 41 41 41 41 39 39 37 37 37 36 35 32 32 37 34 49 61 64 65 66 64 64 64 64
Lifted_Index
-4 -3 -2 -2 -2 -2 -3 -3 -4 -4 -5 -5 -5 -5 -5 -5 -5 -6 -6 -5 -5 -6 -5 -5 -5 -5 -5 -6 -7 -7 -6 -5 -5 -5 -6 -7 -7 -8 -8 -8 -8 -8 -8
-4 -3 -3 -3 -2 -2 -2 -3 -4 -5 -5 -5 -5 -6 -5 -5 -5 -6 -6 -6 -6 -6 -6 -6 -6 -6 -6 -6 -7 -7 -6 -6 -6 -6 -6 -7 -7 -7 -8 -8 -9 -8 -8
-4 -4 -3 -3 -3 -3 -3 -3 -4 -5 -5 -5 -6 -6 -6 -5 -5 -5 -6 -6 -6 -6 -6 -6 -6 -6 -7 -7 -7 -7 -7 -7 -7 -6 -6 -6 -6 -6 -7 -8 -8 -7 -7
-5 -4 -4 -4 -4 -4 -4 -4 -4 -5 -5 -5 -6 -6 -6 -6 -5 -5 -6 -6 -6 -6 -6 -6 -6 -6 -7 -7 -8 -8 -8 -8 -7 -7 -7 -6 -6 -6 -7 -7 -6 -6 -6
-4 -4 -4 -4 -4 -4 -4 -4 -4 -5 -5 -6 -6 -6 -6 -6 -6 -5 -5 -5 -6 -6 -6 -6 -6 -6 -6 -6 -7 -7 -8 -8 -7 -7 -7 -6 -6 -6 -6 -6 -6 -6 -6
-5 -5 -5 -5 -5 -5 -5 -5 -5 -5 -5 -6 -6 -6 -7 -6 -6 -5 -4 -5 -5 -5 -6 -6 -6 -6 -5 -5 -5 -5 -6 -6 -6 -6 -6 -6 -6 -6 -6 -6 -6 -6 -6
-6 -5 -5 -5 -5 -5 -5 -5 -5 -5 -6 -6 -6 -7 -7 -6 -5 -4 -4 -4 -4 -5 -5 -5 -5 -5 -5 -5 -5 -5 -5 -5 -5 -5 -5 -5 -6 -6 -6 -6 -7 -7 -7
-7 -6 -6 -6 -6 -6 -6 -6 -6 -6 -6 -6 -6 -7 -7 -6 -6 -4 -3 -3 -3 -4 -4 -4 -5 -5 -5 -5 -5 -5 -5 -5 -5 -5 -5 -5 -6 -6 -7 -7 -6 -6 -6
-7 -7 -7 -6 -6 -6 -6 -6 -6 -6 -6 -6 -6 -7 -7 -7 -6 -5 -4 -3 -3 -4 -4 -4 -4 -5 -4 -4 -4 -4 -5 -5 -5 -5 -5 -6 -6 -7 -7 -6 -6 -6 -6
-8 -8 -8 -7 -7 -7 -7 -6 -6 -6 -6 -6 -7 -7 -7 -7 -6 -6 -5 -4 -4 -4 -4 -4 -4 -4 -4 -4 -4 -5 -5 -6 -6 -6 -7 -7 -7 -7 -7 -7 -7 -7 -7
-9 -9 -9 -8 -8 -7 -7 -7 -7 -7 -7 -7 -7 -7 -7 -7 -7 -6 -6 -5 -5 -4 -4 -4 -4 -4 -3 -3 -4 -5 -6 -6 -7 -7 -7 -7 -7 -8 -8 -8 -8 -7 -7
-9 -9 -9 -9 -9 -8 -8 -8 -7 -7 -7 -7 -7 -7 -7 -7 -7 -7 -6 -6 -5 -5 -5 -4 -4 -4 -3 -3 -4 -4 -5 -6 -6 -7 -7 -7 -8 -9 -9 -9 -8 -8 -7
-9 -9 -9 -10 -9 -9 -8 -8 -8 -8 -7 -7 -7 -7 -7 -7 -7 -7 -7 -6 -6 -5 -5 -5 -4 -4 -4 -4 -5 -5 -6 -6 -7 -7 -7 -8 -9 -9 -9 -9 -8 -7 -7
-10 -10 -10 -10 -10 -9 -9 -8 -8 -8 -8 -7 -7 -7 -7 -7 -7 -7 -6 -6 -6 -6 -6 -5 -5 -5 -4 -5 -6 -7 -7 -7 -8 -8 -8 -9 -9 -10 -10 -9 -8 -7 -6
-10 -10 -10 -9 -9 -9 -9 -9 -8 -8 -8 -7 -7 -7 -7 -6 -6 -6 -6 -6 -6 -6 -6 -6 -6 -6 -6 -6 -7 -8 -8 -8 -9 -9 -9 -9 -10 -10 -10 -9 -8 -7 -6
-8 -8 -9 -9 -9 -9 -9 -9 -8 -8 -7 -7 -7 -6 -6 -6 -6 -6 -6 -6 -7 -7 -7 -7 -7 -7 -7 -7 -8 -8 -9 -9 -9 -9 -9 -10 -10 -10 -9 -9 -8 -6 -5
-6 -7 -7 -8 -8 -9 -9 -8 -8 -8 -7 -7 -6 -6 -6 -6 -6 -6 -7 -7 -7 -8 -8 -8 -8 -9 -9 -9 -9 -9 -9 -9 -9 -9 -10 -10 -9 -9 -9 -8 -7 -6 -5
-5 -5 -6 -7 -7 -8 -8 -9 -8 -8 -7 -7 -7 -6 -7 -7 -7 -7 -7 -7 -8 -8 -8 -9 -9 -9 -10 -10 -10 -9 -9 -9 -9 -9 -10 -9 -9 -8 -7 -7 -6 -5 -5
-3 -4 -5 -6 -7 -8 -8 -8 -8 -8 -8 -7 -7 -7 -7 -7 -7 -7 -7 -7 -8 -9 -9 -9 -9 -9 -9 -10 -10 -9 -9 -10 -10 -10 -9 -9 -8 -7 -6 -6 -6 -5 -5
0 -1 -3 -5 -6 -7 -7 -8 -7 -7 -7 -7 -7 -7 -7 -7 -7 -7 -7 -7 -8 -9 -9 -9 -9 -9 -9 -10 -10 -9 -9 -9 -10 -9 -9 -8 -7 -6 -6 -6 -5 -5 -5
3 2 0 -2 -4 -5 -6 -6 -6 -5 -4 -4 -5 -6 -6 -6 -6 -7 -6 -7 -7 -8 -9 -9 -9 -9 -9 -9 -9 -9 -9 -9 -9 -9 -8 -7 -6 -5 -5 -5 -5 -5 -4
6 5 3 1 -1 -2 -3 -3 -3 -3 -2 -2 -3 -4 -5 -5 -5 -5 -5 -5 -7 -8 -9 -9 -9 -8 -9 -9 -9 -9 -9 -8 -8 -8 -7 -6 -5 -5 -5 -5 -5 -4 -3
7 6 5 4 2 1 0 -0 -1 -1 -1 -0 -1 -2 -3 -3 -3 -3 -3 -4 -5 -7 -8 -8 -8 -8 -8 -8 -8 -8 -8 -8 -7 -7 -6 -6 -5 -5 -5 -4 -4 -3 -3
8 7 6 5 4 3 2 1 1 0 1 1 1 -0 -2 -2 -3 -3 -3 -4 -5 -5 -6 -7 -7 -7 -7 -7 -7 -7 -7 -7 -6 -6 -6 -5 -5 -4 -4 -3 -3 -2 -2
8 8 7 6 5 4 4 3 2 1 1 1 1 0 -1 -2 -3 -3 -3 -4 -4 -3 -3 -4 -5 -5 -6 -6 -6 -6 -6 -6 -6 -5 -5 -5 -4 -4 -3 -3 -2 -2 -2
9 8 7 7 6 5 5 4 3 3 2 1 1 0 -1 -1 -2 -2 -3 -3 -3 -2 -1 -2 -3 -4 -4 -4 -5 -5 -5 -5 -5 -5 -5 -4 -3 -3 -2 -2 -2 -2 -1